Flag Weather past 2 weeks in Bhilwara, Rajasthan, India

Now
73 °F

Clear.


Feels Like: 77 °F
Forecast: 59 / 85 °F
Wind: 3 mph from West

Location: Jaipur / Sanganer

Current Time: Nov 28, 2014 at 10:23:44 AM

Latest Report: Nov 28, 2014 at 9:00 AM


Visibility: 1 mi

Pressure: 30.01 "Hg

Humidity: 38%

Dew point: 46 °F

Location of BhilwaraLocation

Historic Weather in Bhilwara — Graph

°F

Bhilwara temperature yesterday

Maximum temperature yesterday: 86 °F (at 4:00 PM)
Minimum temperature yesterday: 59 °F (at 6:00 AM)
Average temperature yesterday: 72 °F

Past Weeks' High & Low Weather Summary

 TemperatureHumidityPressure
High86 °F (Nov 27, 4:00 PM)68% (Nov 28, 6:00 AM)30.15 "Hg (Nov 28, 6:00 AM)
Low54 °F (Nov 16, 5:30 AM)8% (Nov 15, 4:00 PM)29.86 "Hg (Nov 26, 3:00 PM)
Average70 °F34%30.01 "Hg
* Reported Nov 13 9:00 AM — Nov 28 9:00 AM, Bhilwara, Weather by CustomWeather, © 2014

Note: Actual official high and low records may vary slightly from our data, if they occured in-between our weather recording intervals... More about our weather records

Advertising

Bhilwara weather history for previous 24 hours

 ConditionsComfort  
Time TempWeatherWind HumidityBarometerVisibility
9:00 AM
Nov 28
73 °FClear.3 mph38%30.01 "Hg1 mi
8:00 AM63 °FClear.1 mph64%29.98 "Hg1 mi
7:30 AM61 °FClear.No wind63%29.98 "Hg1 mi
7:00 AM61 °FClear.No wind59%29.98 "Hg1 mi
6:00 AM59 °FClear.No wind68%29.95 "Hg1 mi
5:30 AM61 °FClear.No wind63%29.92 "Hg1 mi
5:00 AM61 °FClear.No wind63%29.92 "Hg1 mi
4:00 AM61 °FClear.No wind59%29.92 "Hg1 mi
3:00 AM61 °FClear.No wind59%29.92 "Hg1 mi
2:00 AM63 °FClear.No wind59%29.92 "Hg1 mi
1:00 AM64 °FClear.No wind52%29.92 "Hg1 mi
12:00 AM64 °FClear.2 mph52%29.92 "Hg1 mi
11:00 PM
Nov 27
66 °FClear.No wind49%29.95 "Hg1 mi
10:00 PM66 °FClear.No wind46%29.95 "Hg1 mi
9:00 PM68 °FHaze.No wind40%29.92 "Hg1 mi
8:00 PM72 °FHaze.No wind36%29.92 "Hg1 mi
7:00 PM72 °FHaze.2 mph38%29.92 "Hg1 mi
6:00 PM75 °FHaze.No wind34%29.89 "Hg1 mi
5:00 PM84 °FHaze.1 mph18%29.89 "Hg1 mi
4:00 PM86 °FHaze.6 mph15%29.89 "Hg1 mi
3:00 PM84 °FHaze.6 mph18%29.89 "Hg1 mi
2:00 PM84 °FHaze.6 mph18%29.89 "Hg1 mi
1:00 PM84 °FHaze.7 mph18%29.92 "Hg1 mi
12:00 PM81 °FHaze.8 mph20%29.95 "Hg1 mi
11:00 AM79 °FHaze.6 mph23%29.98 "Hg1 mi
10:00 AM77 °FHaze.5 mph24%29.98 "Hg1 mi
Weather by CustomWeather, © 2014

See weather overviewHow to use our weather pages